This is the latest recevied weather packets stored in our database for station/object AI5KP-13. If no packets are shown the sender has not sent any weather packets the latest 10 day(s).
| Time | Temp. | Humidity | Pressure | Rain* | Wind** | Luminosity | Snow |
|---|---|---|---|---|---|---|---|
| 1777851287 | 25.56° C | 39% | 1012.4 hPa | 0 mm | - | 108 W/m² | - |
| 1777850983 | 25.56° C | 35% | 1012.7 hPa | 0 mm | - | 120 W/m² | - |
| 1777850680 | 25.56° C | 37% | 1012.4 hPa | 0 mm | - | 133 W/m² | - |
| 1777850378 | 25.56° C | 37% | 1012.6 hPa | 0 mm | - | 147 W/m² | - |
| 1777850075 | 25.56° C | 35% | 1012.7 hPa | 0 mm | - | 154 W/m² | - |
| 1777849772 | 25.56° C | 33% | 1012.6 hPa | 0 mm | - | 175 W/m² | - |
| 1777849468 | 25.56° C | 31% | 1012.7 hPa | 0 mm | - | 157 W/m² | - |
| 1777849166 | 25.56° C | 35% | 1012.7 hPa | 0 mm | - | 139 W/m² | - |
| 1777848862 | 26.11° C | 33% | 1012.6 hPa | 0 mm | - | 181 W/m² | - |
| 1777848558 | 26.67° C | 31% | 1012.7 hPa | 0 mm | - | 216 W/m² | - |
| 1777848255 | 26.11° C | 32% | 1012.7 hPa | 0 mm | - | 230 W/m² | - |
| 1777847953 | 26.11° C | 31% | 1012.7 hPa | 0 mm | - | 238 W/m² | - |
| 1777847651 | 26.11° C | 30% | 1012.6 hPa | 0 mm | - | 255 W/m² | - |
| 1777847350 | 26.11° C | 42% | 1012.7 hPa | 0 mm | - | 266 W/m² | - |
| 1777847049 | 26.11° C | 43% | 1012.7 hPa | 0 mm | - | 281 W/m² | - |
| 1777846747 | 26.11° C | 43% | 1013 hPa | 0 mm | - | 289 W/m² | - |
| 1777846445 | 26.11° C | 42% | 1012.9 hPa | 0 mm | - | 305 W/m² | - |
| 1777846141 | 26.11° C | 42% | 1012.7 hPa | 0 mm | - | 317 W/m² | - |
| 1777845838 | 26.11° C | 44% | 1012.9 hPa | 0 mm | - | 331 W/m² | - |
| 1777845535 | 26.11° C | 43% | 1013 hPa | 0 mm | - | 345 W/m² | - |
| 1777845232 | 25.56° C | 45% | 1013.1 hPa | 0 mm | - | 357 W/m² | - |
| 1777844929 | 25.56° C | 44% | 1013 hPa | 0 mm | - | 370 W/m² | - |
| 1777844627 | 26.11° C | 42% | 1013.1 hPa | 0 mm | - | 386 W/m² | - |
| 1777844324 | 25.56° C | 44% | 1013.3 hPa | 0 mm | - | 400 W/m² | - |
| 1777844022 | 25.56° C | 43% | 1013.4 hPa | 0 mm | - | 416 W/m² | - |
* Rain latest hour (hover to see other rain measurements)
** Current wind speed in m/s (hover to see current wind gust speed)